Regional Weather Roundup
Issued by NWS Newport/Morehead, NC

Current Version | Previous Version | Graphics & Text | Print | Product List | Glossary On
Versions: 1 2 3 4 5 6 7 8 9 10 11 12 13 14 15 16 17 18 19 20 21 22 23 24 25 26 27 28 29 30 31 32 33 34 35 36 37 38 39 40 41 42 43 44 45 46 47 48 49 50
000 ASUS42 KMHX 062313 RWRMHX WEATHER ROUNDUP FOR EASTERN NORTH CAROLINA NATIONAL WEATHER SERVICE NEWPORT/MOREHEAD CITY NC 600 PM EST SAT FEB 06 2016 NOTE: "FAIR" INDICATES FEW OR NO CLOUDS BELOW 12,000 FEET WITH NO SIGNIFICANT WEATHER AND/OR OBSTRUCTIONS TO VISIBILITY NCZ015>017-031-032-045>047-102-103-070000- NORTH COAST CITY SKY/WX TMP DP RH WIND PRES REMARKS EDENTON CLEAR 41 33 73 E5 30.35R ELIZABETH CITY CLEAR 39 30 70 NE10 30.35R KITTY HAWK CLOUDY 42 31 66 NE6 30.32R MANTEO CLOUDY 42 32 68 NE8 30.34R $$ NCZ045>047-081-094-103-104-070000- CENTRAL COAST CITY SKY/WX TMP DP RH WIND PRES REMARKS FRISCO CLOUDY 45 35 68 NE10G17 30.29F SWANQUARTER N/A 43 N/A N/A VRB6 30.33R $$ NCZ095-097-098-100-101-070000- SOUTHERN COAST CITY SKY/WX TMP DP RH WIND PRES REMARKS BEAUFORT CLOUDY 44 35 70 NE9 30.31R CEDAR ISLAND N/A 45 N/A N/A VRB13G20 30.36S JACKSONVILLE CLOUDY 47 27 45 N8 30.30S PINEY ISLAND CLOUDY N/A N/A N/A MISG 30.32R WILMINGTON LGT RAIN 45 36 70 E5 30.29S $$ NCZ011>013-027>030-043-044-078>080-089-090>093-098-070000- COASTAL PLAIN CITY SKY/WX TMP DP RH WIND PRES REMARKS AHOSKIE CLEAR 39 25 57 CALM 30.34S CLINTON PTCLDY 46 28 49 E3 30.31F ELIZABETHTOWN CLOUDY 47 24 39 NE3 30.30S GOLDSBORO PTCLDY 45 21 39 N7 30.30S GREENVILLE CLOUDY 45 28 53 N5 30.34R HAVELOCK LGT RAIN 45 34 65 NE7 30.32S KENANSVILLE N/A 44 25 46 CALM 30.33S KINSTON CLOUDY 46 25 42 MISG 30.33S NEW BERN CLOUDY 45 27 49 NE9 30.33R RICHLANDS CLOUDY 45 25 45 NW3 30.32R ROCKY MOUNT CLEAR 40 24 53 NE3 30.33S WASHINGTON CLOUDY 43 26 50 CALM 30.34R WHITEVILLE CLOUDY 47 24 39 NE5 30.28S $$ AMZ130-135-150-152-154-156-158-170-250-252-270-ANZ085-086-088-633-658-670-070000- MARINE OBSERVATIONS STATION/POSITION TIME TEMP WIND PRES WAVE SWELL AIR SEA DIR/SP/G HT/PER HT/PER (UTC) (F) (DEG/KT/KT) (MB) (FT/S) (FT/S) CHESAPEAKE LIGHT 2200 40 30/ 5/ 6 1028.2 64 E VA BEACH 2250 45 53 30/ 12/ 16 1026.3 4/ 8 3/ 8 DUCK 2200 42 45 1026.5 2 E DUCK 2211 45 N/A 3/12 2/12 OREGON INLET 2200 43 47 1026.6 13E OREGON INLT 2300 46 N/A 5/11 3/11 HATTERAS CG 2200 45 53 1025.7 DIAMOND BUOY 2250 52 71 20/ 17/ 21 1024.7 6/10 5/10 CAPE LOOKOUT NOT AVBL BEAUFORT LAB 2200 45 50 1025.2 30 SE NEW RVR IN 2208 50 64 1023.5 30 SE NEW RVR IN 2225 65 N/A 5/12 2/12 27 SE WRIGHTSVLE 2208 52 69 360/ 17/ 23 1024.3 5 SE WRIGHTSVLE 2208 49 53 60/ 14/ 19 1025.6 225 S CAPE HAT 2250 60 69 70/ 14/ 17 N/A 8/10 7/10 41 SE CHARLESTON 2250 55 64 30/ 23/ 27 1021.3 7/ 7 3/10 $$

USA.gov is the U.S. government's official web portal to all federal, state and local government web resources and services.